MST,Max TemperatureF,Mean TemperatureF,Min TemperatureF,Max Dew PointF,MeanDew PointF,Min DewpointF,Max Humidity, Mean Humidity, Min Humidity, Max Sea Level PressureIn, Mean Sea Level PressureIn, Min Sea Level PressureIn, Max VisibilityMiles, Mean VisibilityMiles, Min VisibilityMiles, Max Wind SpeedMPH, Mean Wind SpeedMPH, Max Gust SpeedMPH,PrecipitationIn, CloudCover, Events, WindDirDegrees
2013-12-1,33,32,30,32,30,27,100,91,86,30.46,30.38,30.32,10,10,5,8,2,,0.00,8,,110
2013-12-2,35,32,28,30,29,27,93,90,81,30.33,30.11,29.87,10,10,10,8,3,,0.00,5,,101
2013-12-3,50,38,26,32,26,21,100,64,35,29.87,29.64,29.46,10,10,7,33,7,44,0.00,5,Rain,178
2013-12-4,44,24,3,28,20,0,100,83,49,29.98,29.71,29.43,10,6,0,34,15,45,0.00,7,Snow,293
2013-12-5,19,7,-5,10,2,-11,92,80,67,29.97,29.93,29.88,10,9,2,13,5,,0.00,4,Snow,122
2013-12-6,24,14,3,10,6,0,85,71,46,30.10,30.07,30.00,10,10,2,10,6,,0.00,3,Snow,119
2013-12-7,30,21,12,27,16,7,100,79,59,30.06,29.83,29.67,10,9,0,15,3,25,0.00,8,Snow,116
2013-12-8,26,16,5,25,8,-4,93,65,38,30.05,29.90,29.68,10,10,1,18,8,24,0.00,4,Snow,238
2013-12-9,19,8,-4,1,-4,-9,85,62,35,30.47,30.28,30.06,10,10,10,13,3,,0.00,1,,105
2013-12-10,23,9,-5,3,-3,-11,84,63,36,30.50,30.40,30.30,10,10,10,13,3,,0.00,0,,107
2013-12-11,28,16,5,12,6,0,86,67,43,30.56,30.46,30.37,10,10,10,9,3,,0.00,0,,105
2013-12-12,32,18,5,16,9,1,92,71,44,30.56,30.41,30.20,10,10,10,8,3,,0.00,0,,110
2013-12-13,32,20,8,18,11,3,86,73,55,30.29,30.15,30.09,10,10,10,9,4,,0.00,0,,89
2013-12-14,35,22,8,18,12,5,86,71,48,30.51,30.43,30.29,10,10,10,10,5,,0.00,1,,97
2013-12-15,33,22,10,21,15,9,92,72,52,30.53,30.49,30.44,10,10,10,10,4,,0.00,0,,110
2013-12-16,37,24,12,21,17,10,93,72,48,30.53,30.49,30.44,10,10,10,10,3,,0.00,0,,98
2013-12-17,41,28,15,23,18,12,86,72,39,30.56,30.47,30.37,10,10,10,9,4,,0.00,0,,103
2013-12-18,39,29,19,28,22,14,86,73,49,30.36,30.16,29.91,10,10,10,9,3,,0.00,2,,112
2013-12-19,46,36,26,32,26,23,93,69,40,29.94,29.79,29.73,10,10,10,13,4,,0.00,4,,178
2013-12-20,33,28,24,32,31,23,100,96,87,29.82,29.78,29.76,10,6,0,7,3,,0.00,7,Fog-Snow,128
2013-12-21,32,26,19,28,24,18,100,91,80,29.99,29.78,29.69,10,8,1,7,2,,0.00,6,Snow,233
2013-12-22,33,22,12,21,16,9,93,75,48,30.35,30.19,30.00,10,10,10,10,5,,0.00,2,,111
2013-12-23,37,28,19,25,21,18,93,73,52,30.51,30.45,30.35,10,10,10,14,3,,0.00,4,,102
2013-12-24,41,30,19,25,19,14,93,70,48,30.46,30.38,30.29,10,10,10,12,4,,0.00,1,,91
2013-12-25,37,26,14,18,13,9,86,63,38,30.52,30.47,30.43,10,10,10,10,5,,0.00,0,,94
2013-12-26,35,24,12,16,11,7,85,61,35,30.50,30.45,30.39,10,10,10,9,4,,0.00,0,,104
2013-12-27,42,30,17,21,17,12,86,65,36,30.48,30.39,30.29,10,10,10,10,4,,0.00,0,,99
2013-12-28,35,27,19,25,20,16,93,75,60,30.28,30.13,30.04,10,10,10,8,3,,0.00,1,,107
2013-12-29,35,26,17,21,16,10,93,69,38,30.29,30.20,30.08,10,10,10,10,6,,0.00,0,,80
2013-12-30,35,24,14,18,13,10,86,62,38,30.40,30.34,30.27,10,10,10,12,4,,0.00,0,,100
2013-12-31,41,31,21,27,20,14,86,67,42,30.37,30.29,30.20,10,10,10,8,3,,0.00,4,,120